Location: Nairn
(57.5833°N, 3.8667°W)
Time: 20:32:37
(UTC+00:00)

Altair - Pass Details

Date: 03 October 2022
Orbit: 1501 x 1682 km, 47.2° (Epoch: 05 December)

Event Time Altitude Azimuth Distance (km) Brightness Sun altitude
Rises 04:32:34 0° 201° (SSW) 4,771 9.7 -15.5°
Reaches altitude 10° 04:36:22 10° 188° (S) 3,818 9.3 -15.0°
Maximum altitude 04:43:35 24° 140° (SE) 2,909 9.2 -14.1°
Drops below altitude 10° 04:50:58 10° 91° (E) 3,922 11.0 -13.1°
Sets 04:54:55 0° 79° (E) 4,928 12.3 -12.6°
